Monticello, KY

3:06 AM EST on December 08, 2019 (GMT -0500)
Wayne County

Weather History for KEKQ - September, 2019

Change the Weather History Date:

Wednesday, September 11, 2019

  Actual Average Record
Temperature  
Mean Temperature 80 °F -  
Max Temperature 93 °F 81 °F 95 °F (1964)
Min Temperature 66 °F 57 °F -74 °F (2013)
Cooling Degree Days 14    
Growing Degree Days 30 (Base 50)    
Moisture  
Dew Point 69 °F    
Average Humidity 72    
Maximum Humidity 100    
Minimum Humidity 46    
Precipitation  
Precipitation 0.00 in - - ()
Sea Level Pressure  
Sea Level Pressure 30.20 in    
Wind  
Wind Speed 8 mph (NW)    
Max Wind Speed 15 mph    
Max Gust Speed 20 mph    
Visibility 10 miles    
Events Thunderstorm    
Averages and records for this station are not official NWS values.
T = Trace of Precipitation, MM = Missing Value Source: NWS Daily Summary

Daily Weather History Graph

Daily Weather History Graph

Search for Another Location

Airport or City:

Astronomy

Sep. 11, 2019 Rise Set
Actual Time 6:18 AM CDT 6:53 PM CDT
Civil Twilight 5:52 AM CDT 7:19 PM CDT
Nautical Twilight 5:21 AM CDT 7:50 PM CDT
Astronomical Twilight 4:49 AM CDT 8:21 PM CDT
Moon 6:00 PM CDT (9/11) 3:45 AM CDT (9/11)
Length of Visible Light 13h 27m
Length of Day
12h 35m
Waxing Gibbous, 95% of the Moon is Illuminated
Sep 11
Waxing Gibbous
Sep 13
Full
Sep 21
Last Quarter
Sep 28
New
Oct 5
First Quarter

Hourly Weather History & Observations

Time (CDT) Temp. Heat Index Dew Point Humidity Pressure Visibility Wind Dir Wind Speed Gust Speed Precip Events Conditions
12:56 AM 73.0 °F - 68.0 °F 84% 30.23 in 10.0 mi ENE 5.8 mph - N/A   Clear
1:56 AM 69.1 °F - 68.0 °F 96% 30.21 in 10.0 mi North 9.2 mph - N/A   Clear
2:56 AM 73.9 °F - 68.0 °F 82% 30.21 in 10.0 mi NE 6.9 mph - N/A   Clear
3:56 AM 71.1 °F - 68.0 °F 90% 30.22 in 10.0 mi North 8.1 mph - N/A   Clear
4:56 AM 66.9 °F - 66.9 °F 100% 30.22 in 10.0 mi NW 9.2 mph - N/A   Clear
6:56 AM 69.1 °F - 68.0 °F 96% 30.27 in 10.0 mi West 10.4 mph - N/A   Clear
7:56 AM 71.1 °F - 69.1 °F 93% - 10.0 mi Calm Calm - N/A   Clear
8:56 AM 77.0 °F - 68.0 °F 74% 30.29 in 10.0 mi NE 6.9 mph - N/A   Clear
9:56 AM 86.0 °F 90.1 °F 69.1 °F 57% 30.28 in 10.0 mi WSW 12.7 mph - N/A   Clear
10:56 AM 88.0 °F 92.9 °F 70.0 °F 55% 30.27 in 10.0 mi West 13.8 mph 19.6 mph N/A   Clear
11:56 AM 90.0 °F 95.4 °F 70.0 °F 52% 30.25 in 10.0 mi NNW 8.1 mph - N/A   Clear
12:56 PM 91.0 °F 96.6 °F 70.0 °F 50% 30.23 in 10.0 mi West 15.0 mph - N/A   Clear
1:56 PM 91.0 °F 96.6 °F 70.0 °F 50% 30.21 in 10.0 mi West 9.2 mph - N/A   Partly Cloudy
2:56 PM 91.0 °F 96.6 °F 70.0 °F 50% 30.17 in 10.0 mi NNW 12.7 mph 18.4 mph N/A   Scattered Clouds
3:11 PM 91.4 °F 96.8 °F 69.8 °F 49% 30.21 in 10.0 mi Variable 5.8 mph - N/A Thunderstorm Partly Cloudy
3:26 PM 91.4 °F 96.8 °F 69.8 °F 49% 30.20 in 10.0 mi North - - N/A   Scattered Clouds
3:56 PM 93.0 °F 99.0 °F 70.0 °F 47% 30.17 in 10.0 mi West 13.8 mph 18.4 mph N/A   Scattered Clouds
4:03 PM 93.2 °F 98.8 °F 69.8 °F 46% 30.20 in 10.0 mi West 12.7 mph 19.6 mph N/A   Partly Cloudy
4:56 PM 91.0 °F 96.6 °F 70.0 °F 50% 30.14 in 10.0 mi Variable 5.8 mph - N/A   Mostly Cloudy
5:56 PM 87.1 °F 92.0 °F 70.0 °F 57% 30.14 in 10.0 mi Variable 4.6 mph - N/A   Clear
6:56 PM 82.0 °F 85.9 °F 70.0 °F 67% 30.14 in 10.0 mi NE 8.1 mph - N/A   Clear
7:56 PM 72.0 °F - 70.0 °F 93% 30.16 in 10.0 mi West 5.8 mph - N/A   Clear
8:56 PM 70.0 °F - 69.1 °F 97% 30.17 in 10.0 mi West 11.5 mph - N/A   Clear
9:56 PM 71.1 °F - 70.0 °F 96% 30.17 in 10.0 mi NNW 9.2 mph - N/A   Clear
10:56 PM 69.1 °F - 69.1 °F 100% 30.16 in 8.0 mi West 10.4 mph - N/A   Clear
11:56 PM 68.0 °F - 68.0 °F 100% 30.15 in 6.0 mi West 11.5 mph - N/A   Clear